Location: Campillo
(40.8621°N, 4.2488°W)
Time: 23:51:53
(UTC+00:00)

SJ-6B - Pass Details

Date: 04 October 2021
Orbit: 508 x 581 km, 97.6° (Epoch: 16 October)

Event Time Altitude Azimuth Distance (km) Brightness Sun altitude
Exits shadow 18:55:25 13° 57° (ENE) 1,687 4.8 -12.5°
Drops below altitude 10° 18:56:50 10° 37° (NE) 1,862 5.2 -12.7°
Sets 18:59:58 0° 10° (N) 2,747 6.3 -13.3°
